When you browse on this site, cookies collect data to enhance your experience and personalize the content and advertising you see.
Visit our Privacy Policy to learn more. By continuing to use the site, you agree to this use of cookies and data.
  • In Latvia
  • List of Countries
  • For 7 days
  • Water Temperature
  • Satellite Maps
  • Weather Map
  • Weather Widgets
  • user-avatar
    Login

    Hourly Weather Plawowice

    Today, 19 February, Tuesday

    Time Temperature Precipitation Wind Pressure Humidity
    00:00 +6°C° 0 mm 1 mps 747 mmHg 72%
    01:00 +5°C° 0 mm 1 mps 747 mmHg 73%
    02:00 +5°C° 0 mm 1 mps 747 mmHg 71%
    03:00 +5°C° 0 mm 1 mps 747 mmHg 68%
    04:00 +4°C° 0 mm 1 mps 747 mmHg 66%
    05:00 +4°C° 0 mm 1 mps 747 mmHg 65%
    06:00 +4°C° 0 mm 1 mps 746 mmHg 63%
    07:00 +3°C° 0 mm 1 mps 746 mmHg 62%
    08:00 +5°C° 0 mm 1 mps 746 mmHg 57%
    09:00 +7°C° 0 mm 1 mps 746 mmHg 52%
    10:00 +8°C° 0 mm 2 mps 746 mmHg 47%
    11:00 +9°C° 0 mm 2 mps 745 mmHg 45%
    12:00 +11°C° 0 mm 3 mps 745 mmHg 43%
    13:00 +12°C° 0 mm 4 mps 745 mmHg 41%
    14:00 +12°C° 0 mm 4 mps 745 mmHg 45%
    15:00 +11°C° 0 mm 4 mps 744 mmHg 48%
    16:00 +11°C° 0 mm 4 mps 744 mmHg 51%
    17:00 +10°C° 0 mm 4 mps 744 mmHg 57%
    18:00 +7°C° 0 mm 4 mps 744 mmHg 64%
    19:00 +6°C° 0 mm 4 mps 745 mmHg 70%
    20:00 +6°C° 0 mm 4 mps 745 mmHg 71%
    21:00 +5°C° 0 mm 4 mps 745 mmHg 72%
    22:00 +5°C° 0 mm 4 mps 745 mmHg 74%
    23:00 +5°C° 0.2 mm 5 mps 745 mmHg 76%

    Tomorrow, 20 February, Wednesday

    Time Temperature Precipitation Wind Pressure Humidity
    00:00 +5°C° 0.2 mm 5 mps 745 mmHg 78%
    01:00 +5°C° 0.2 mm 5 mps 745 mmHg 80%
    02:00 +3°C° 0.1 mm 5 mps 745 mmHg 84%
    03:00 +4°C° 0.1 mm 4 mps 745 mmHg 87%
    04:00 +4°C° 0.1 mm 4 mps 745 mmHg 91%
    05:00 +3°C° 0 mm 4 mps 745 mmHg 90%
    06:00 +3°C° 0 mm 4 mps 746 mmHg 89%
    07:00 +2°C° 0 mm 5 mps 746 mmHg 89%
    08:00 +3°C° 0.1 mm 5 mps 746 mmHg 83%
    09:00 +3°C° 0.1 mm 6 mps 746 mmHg 77%
    10:00 +4°C° 0.1 mm 7 mps 747 mmHg 71%
    11:00 +5°C° 0 mm 7 mps 747 mmHg 68%
    12:00 +5°C° 0 mm 7 mps 747 mmHg 64%
    13:00 +5°C° 0 mm 7 mps 747 mmHg 61%
    14:00 +5°C° 0 mm 6 mps 747 mmHg 63%
    15:00 +5°C° 0 mm 6 mps 747 mmHg 64%
    16:00 +5°C° 0 mm 5 mps 748 mmHg 65%
    17:00 +5°C° 0 mm 5 mps 748 mmHg 67%
    18:00 +5°C° 0 mm 5 mps 748 mmHg 69%
    19:00 +5°C° 0 mm 4 mps 749 mmHg 70%
    20:00 +5°C° 0 mm 4 mps 749 mmHg 72%
    21:00 +5°C° 0 mm 4 mps 749 mmHg 73%
    22:00 +4°C° 0 mm 4 mps 749 mmHg 75%
    23:00 +4°C° 0 mm 4 mps 749 mmHg 76%

    Day after tomorrow, 21 February, Thursday

    Time Temperature Precipitation Wind Pressure Humidity
    00:00 +4°C° 0 mm 4 mps 749 mmHg 77%
    01:00 +4°C° 0 mm 4 mps 750 mmHg 77%
    02:00 +4°C° 0 mm 4 mps 749 mmHg 77%
    03:00 +4°C° 0 mm 4 mps 749 mmHg 76%
    04:00 +3°C° 0 mm 4 mps 749 mmHg 76%
    05:00 +3°C° 0.1 mm 4 mps 749 mmHg 77%
    06:00 +3°C° 0.1 mm 4 mps 749 mmHg 78%
    07:00 +3°C° 0.1 mm 4 mps 749 mmHg 78%
    08:00 +3°C° 0.3 mm 5 mps 749 mmHg 75%
    09:00 +5°C° 0.3 mm 5 mps 749 mmHg 72%
    10:00 +5°C° 0.3 mm 6 mps 749 mmHg 69%
    11:00 +5°C° 0.1 mm 6 mps 749 mmHg 70%
    12:00 +5°C° 0.1 mm 6 mps 748 mmHg 71%
    13:00 +5°C° 0.1 mm 6 mps 748 mmHg 72%
    14:00 +5°C° 0.8 mm 7 mps 748 mmHg 75%
    15:00 +5°C° 0.8 mm 7 mps 748 mmHg 78%
    16:00 +4°C° 0.8 mm 7 mps 747 mmHg 81%
    17:00 +4°C° 0.3 mm 7 mps 748 mmHg 82%
    18:00 +4°C° 0.3 mm 6 mps 748 mmHg 84%
    19:00 +4°C° 0.3 mm 6 mps 748 mmHg 86%
    20:00 +4°C° 0.2 mm 6 mps 748 mmHg 87%
    21:00 +5°C° 0.2 mm 5 mps 748 mmHg 88%
    22:00 +6°C° 0.2 mm 5 mps 748 mmHg 89%
    23:00 +6°C° 0.2 mm 5 mps 748 mmHg 87%

    22 February, Friday

    Time Temperature Precipitation Wind Pressure Humidity
    00:00 +5°C° 0.2 mm 6 mps 749 mmHg 86%
    01:00 +5°C° 0.2 mm 7 mps 749 mmHg 85%
    02:00 +4°C° 0.2 mm 7 mps 749 mmHg 84%
    03:00 +4°C° 0.2 mm 7 mps 750 mmHg 83%
    04:00 +3°C° 0.2 mm 7 mps 750 mmHg 82%
    05:00 +2°C° 0 mm 6 mps 751 mmHg 80%
    06:00 +1°C° 0 mm 6 mps 752 mmHg 78%
    07:00 -1°C° 0 mm 6 mps 753 mmHg 75%
    08:00 0°C° 0 mm 5 mps 754 mmHg 69%
    09:00 0°C° 0 mm 5 mps 755 mmHg 62%
    10:00 0°C° 0 mm 4 mps 756 mmHg 56%
    11:00 0°C° 0 mm 5 mps 757 mmHg 53%
    12:00 0°C° 0 mm 5 mps 757 mmHg 50%
    13:00 +1°C° 0 mm 5 mps 758 mmHg 47%
    14:00 0°C° 0 mm 5 mps 758 mmHg 46%
    15:00 0°C° 0 mm 5 mps 759 mmHg 46%
    16:00 0°C° 0 mm 5 mps 759 mmHg 46%
    17:00 -1°C° 0 mm 5 mps 760 mmHg 49%
    18:00 -2°C° 0 mm 4 mps 761 mmHg 53%
    19:00 -3°C° 0 mm 4 mps 761 mmHg 56%
    20:00 -2°C° 0 mm 3 mps 762 mmHg 54%
    21:00 -4°C° 0 mm 3 mps 762 mmHg 52%
    22:00 -4°C° 0 mm 3 mps 763 mmHg 50%
    23:00 -3°C° 0 mm 2 mps 763 mmHg 49%

    23 February, Saturday

    Time Temperature Precipitation Wind Pressure Humidity
    00:00 -3°C° 0 mm 2 mps 763 mmHg 48%
    01:00 -1°C° 0 mm 1 mps 764 mmHg 47%
    02:00 -1°C° 0 mm 1 mps 763 mmHg 47%
    03:00 -1°C° 0 mm 1 mps 763 mmHg 47%
    04:00 -2°C° 0 mm 1 mps 763 mmHg 47%
    05:00 -3°C° 0 mm 0 mps 763 mmHg 47%
    06:00 -3°C° 0 mm 0 mps 763 mmHg 47%
    07:00 -3°C° 0 mm 0 mps 763 mmHg 48%
    08:00 -1°C° 0 mm 1 mps 763 mmHg 42%
    09:00 0°C° 0 mm 1 mps 762 mmHg 36%
    10:00 -1°C° 0 mm 2 mps 762 mmHg 31%
    11:00 +1°C° 0 mm 2 mps 761 mmHg 30%
    12:00 +1°C° 0 mm 2 mps 761 mmHg 29%
    13:00 +2°C° 0 mm 2 mps 760 mmHg 28%
    14:00 +2°C° 0 mm 2 mps 760 mmHg 29%
    15:00 +2°C° 0 mm 2 mps 759 mmHg 31%
    16:00 +3°C° 0 mm 2 mps 759 mmHg 33%
    17:00 +2°C° 0 mm 2 mps 758 mmHg 35%
    18:00 +1°C° 0 mm 3 mps 758 mmHg 38%
    19:00 +1°C° 0 mm 3 mps 758 mmHg 41%
    20:00 +1°C° 0 mm 3 mps 758 mmHg 45%
    21:00 +2°C° 0 mm 2 mps 758 mmHg 50%
    22:00 +2°C° 0 mm 2 mps 758 mmHg 55%
    23:00 +2°C° 0 mm 2 mps 758 mmHg 60%

    24 February, Sunday

    Time Temperature Precipitation Wind Pressure Humidity
    00:00 +2°C° 0 mm 2 mps 758 mmHg 65%
    01:00 +1°C° 0 mm 2 mps 758 mmHg 70%
    02:00 +2°C° 0 mm 2 mps 758 mmHg 74%
    03:00 +2°C° 0 mm 2 mps 758 mmHg 78%
    04:00 +2°C° 0 mm 2 mps 757 mmHg 83%
    05:00 +2°C° 0 mm 2 mps 757 mmHg 85%
    06:00 +2°C° 0 mm 2 mps 758 mmHg 87%
    07:00 +2°C° 0 mm 2 mps 758 mmHg 89%
    08:00 +2°C° 0 mm 3 mps 758 mmHg 87%
    09:00 +3°C° 0 mm 3 mps 758 mmHg 84%
    10:00 +4°C° 0 mm 3 mps 758 mmHg 82%
    11:00 +4°C° 0 mm 4 mps 757 mmHg 80%
    12:00 +5°C° 0 mm 4 mps 757 mmHg 79%
    13:00 +6°C° 0 mm 4 mps 756 mmHg 77%
    14:00 +6°C° 0 mm 4 mps 756 mmHg 77%
    15:00 +6°C° 0 mm 5 mps 755 mmHg 76%
    16:00 +6°C° 0 mm 5 mps 755 mmHg 75%
    17:00 +5°C° 0 mm 4 mps 754 mmHg 79%
    18:00 +4°C° 0 mm 4 mps 754 mmHg 84%
    19:00 +4°C° 0 mm 4 mps 754 mmHg 88%
    20:00 +4°C° 0 mm 4 mps 754 mmHg 88%
    21:00 +4°C° 0 mm 4 mps 753 mmHg 88%
    22:00 +3°C° 0 mm 4 mps 753 mmHg 88%
    23:00 +3°C° 0 mm 4 mps 752 mmHg 88%
    Show more